Theta_e
322 323 324 323 322 322 323 324 324 324 325 323 322 322 322 323 321 320 319 319 318 317 317 314 310 307 307 306 306 306 305 305 304 304 303 303 303 302 303 303 302 302 302 302
324 323 323 323 324 323 324 323 322 323 323 323 324 323 322 321 322 320 319 319 319 318 316 314 310 307 306 306 305 305 305 304 303 303 302 302 302 302 302 302 302 302 302 301
324 324 322 323 324 323 324 323 322 322 323 322 322 322 321 320 320 322 321 319 319 318 317 314 310 308 306 305 306 305 305 304 303 302 302 302 302 302 302 301 301 301 301 301
324 322 321 321 321 321 322 323 322 322 322 322 321 324 321 321 321 320 321 320 319 318 318 315 310 308 306 305 305 305 304 303 303 302 302 302 302 302 301 301 301 300 301 301
323 321 320 321 320 321 321 321 321 323 322 322 322 323 322 323 323 321 320 320 319 318 317 316 312 309 307 305 305 304 304 303 303 302 302 302 302 301 301 301 300 300 300 300
321 319 320 320 321 321 321 321 321 322 323 325 322 323 323 323 323 322 321 319 319 318 316 315 314 312 308 306 305 305 304 303 302 302 302 301 301 301 301 301 300 300 300 300
321 321 319 320 321 319 321 322 325 330 330 328 323 322 322 323 322 321 321 320 318 317 316 314 311 311 309 306 306 304 304 304 303 302 301 300 300 300 300 300 300 300 300 300
323 323 320 319 320 321 321 321 323 325 327 327 321 323 322 321 319 319 318 319 317 316 314 313 311 311 309 307 306 304 304 304 303 302 301 300 300 300 300 300 299 299 299 299
322 322 322 319 319 320 323 322 321 323 322 322 322 322 321 320 316 317 317 316 317 315 314 312 311 311 311 308 307 306 305 304 303 302 301 300 299 299 299 299 299 299 299 300
321 323 323 321 319 319 320 322 323 322 322 321 321 320 323 321 318 315 314 314 316 316 314 312 310 311 311 309 308 307 306 304 303 302 301 300 299 299 299 299 299 299 299 300
321 322 324 319 320 320 320 321 322 322 320 320 320 321 320 318 318 316 313 313 315 315 314 312 310 310 310 309 308 307 305 304 303 302 300 299 299 299 299 299 299 299 299 299
322 323 324 322 321 320 320 320 321 321 321 321 321 322 320 321 316 315 314 314 314 314 313 311 309 310 309 308 307 306 304 303 302 301 300 299 299 299 298 299 299 299 299 299
323 324 324 324 322 320 321 321 319 320 320 321 322 322 318 316 317 314 314 313 313 313 313 311 309 308 308 307 306 305 303 302 302 300 299 299 299 298 298 299 299 299 299 299
325 323 323 324 324 323 321 321 321 321 321 321 321 321 320 316 315 314 314 314 312 313 313 311 308 307 308 307 305 304 303 302 301 300 299 299 299 298 298 299 298 298 299 299
323 323 322 322 323 324 324 322 321 321 321 322 321 322 322 321 320 314 314 313 313 312 312 311 309 307 307 306 305 303 302 302 300 299 299 299 299 299 298 298 298 298 299 299
320 326 324 322 322 322 323 323 324 321 321 321 321 321 321 320 319 319 315 315 314 313 312 311 310 308 307 306 305 304 302 301 300 299 299 299 299 298 298 298 298 299 298 299
313 318 324 329 323 323 325 323 324 324 322 321 321 321 320 320 320 320 318 316 314 313 312 311 310 308 308 306 305 303 302 300 300 299 299 298 298 298 298 298 298 298 298 298
314 316 316 323 327 331 324 322 323 324 324 321 321 321 321 320 321 319 317 315 312 312 311 310 308 308 307 306 304 302 301 300 299 299 299 298 298 298 298 298 298 298 298 298
316 318 321 325 327 328 325 324 324 323 323 323 321 321 320 320 320 318 315 312 312 311 309 308 309 308 307 305 303 301 300 299 299 299 298 298 298 298 298 298 298 298 298 298
318 320 323 323 328 333 327 323 321 320 322 321 321 321 321 320 322 321 314 311 310 309 308 308 308 307 305 302 301 300 299 299 299 299 299 298 298 298 298 298 298 298 298 297
315 317 317 316 316 323 323 322 320 322 323 320 319 319 319 320 319 316 312 310 308 308 308 308 306 303 302 301 300 300 299 299 299 299 298 298 298 298 298 298 298 298 297 297
314 315 316 317 318 321 317 318 321 317 314 314 315 317 317 316 312 310 309 308 308 306 305 304 302 301 301 301 300 299 299 299 299 298 298 298 298 298 298 298 298 297 297 298
311 316 316 317 319 314 313 317 313 312 315 312 313 313 315 312 310 309 308 307 306 304 303 302 301 301 300 300 300 299 299 299 298 298 298 298 298 298 298 298 297 297 297 298
307 309 313 312 313 312 313 311 311 313 313 312 310 312 312 313 309 307 306 305 305 303 302 302 301 300 300 300 299 299 299 298 298 298 298 298 298 298 298 298 297 297 297 297
307 308 309 309 308 310 311 311 311 313 314 313 311 310 312 312 310 307 306 305 304 303 302 301 301 300 300 300 299 299 299 298 298 298 298 298 298 298 298 297 297 297 297 297
306 308 311 312 311 310 310 309 312 313 314 314 312 312 310 310 310 307 306 304 303 302 302 301 301 301 300 299 299 299 298 298 298 298 298 298 298 297 298 297 297 297 297 296
Wind_Speed
10 5 8 12 14 14 2 9 10 7 12 10 14 14 15 15 17 15 16 16 15 15 18 23 20 16 13 13 12 11 9 6 3 2 2 3 6 8 8 9 8 11 12 14
6 12 14 10 6 12 9 9 10 9 6 5 9 14 15 16 21 22 19 17 16 14 14 20 22 18 18 17 16 12 10 8 5 3 2 3 6 9 9 8 10 10 11 15
12 3 11 6 4 6 9 11 9 8 3 6 8 11 20 16 16 17 20 18 16 16 15 14 20 22 19 19 18 14 11 9 7 4 3 3 6 7 9 9 11 10 14 14
11 14 7 7 10 11 12 6 9 4 3 4 7 6 12 12 17 19 18 19 17 14 13 14 21 22 24 22 17 17 13 11 9 7 5 3 6 8 9 11 12 13 15 16
3 7 7 8 11 9 7 2 2 5 6 8 10 5 5 8 7 14 16 16 17 15 11 14 17 24 25 23 21 17 14 13 11 8 5 6 7 8 10 11 13 15 15 14
12 3 6 11 2 3 9 3 2 3 3 7 12 12 8 10 12 7 9 12 13 14 12 11 21 23 25 24 23 20 18 14 12 8 8 9 9 10 10 12 15 14 15 17
13 17 4 5 4 1 4 4 3 4 4 7 5 12 15 6 4 3 7 8 10 11 11 10 12 18 23 25 24 21 17 16 12 12 11 9 11 12 12 13 14 14 17 18
10 9 17 15 14 9 12 10 6 6 7 10 4 6 5 7 8 5 9 8 10 10 10 10 12 19 23 26 24 23 20 21 17 14 11 11 11 12 13 13 14 17 18 20
10 14 8 12 13 13 8 10 12 10 15 8 7 11 10 7 8 8 9 9 10 11 11 13 14 21 23 26 26 25 24 21 19 16 14 12 10 11 13 14 16 19 19 22
8 17 8 8 9 11 10 2 4 5 5 8 8 10 6 6 12 11 10 10 9 10 12 13 13 21 23 25 26 27 24 23 21 18 15 12 10 12 15 17 18 18 23 25
19 12 2 7 12 15 6 7 8 4 8 4 10 7 6 6 4 14 11 10 10 10 13 13 12 20 24 23 24 24 24 23 19 17 16 11 11 14 16 17 20 22 23 24
19 8 15 19 10 20 18 14 21 8 8 9 15 17 7 3 8 9 11 11 10 9 9 10 11 19 22 24 23 24 22 20 20 18 14 12 13 14 16 19 20 22 23 24
4 7 14 18 6 3 11 19 18 20 11 21 16 13 4 5 8 9 10 10 11 11 10 9 9 11 18 22 24 22 22 21 20 17 14 13 14 14 16 19 21 22 23 26
5 10 14 18 21 8 9 16 21 21 16 25 21 25 12 7 8 9 8 9 11 12 14 11 9 9 18 22 24 24 23 23 21 17 15 15 14 15 18 20 21 23 23 25
6 19 22 25 24 20 19 19 26 26 31 21 24 26 22 15 10 12 16 11 10 13 14 13 12 10 15 21 24 25 24 23 18 15 14 15 15 16 18 20 22 24 24 24
19 7 22 25 27 28 29 28 20 28 29 26 24 31 19 8 7 5 12 14 15 14 16 16 13 12 12 19 23 23 22 20 16 15 15 16 15 15 18 21 23 22 24 23
13 7 13 20 26 26 27 30 28 21 20 21 23 35 7 14 12 15 10 8 8 10 11 14 15 13 17 21 25 24 22 19 17 17 15 11 14 15 18 19 19 21 22 25
18 21 8 13 21 33 19 22 23 21 25 23 22 25 17 17 10 9 6 8 8 8 8 9 10 14 21 23 21 20 20 18 15 12 11 12 13 15 16 16 19 22 24 24
21 16 8 9 15 19 18 22 16 13 15 17 23 26 24 18 7 9 8 8 8 7 7 8 19 21 23 22 21 19 16 13 11 10 12 13 13 12 14 17 21 23 24 25
12 11 8 12 6 10 19 15 7 4 15 9 11 22 20 10 12 10 10 9 8 7 12 13 22 23 24 21 20 18 14 12 11 12 14 13 10 13 15 19 22 23 23 24
8 3 10 10 6 10 11 16 6 13 9 4 6 18 13 10 10 5 9 9 8 10 14 21 23 19 23 23 20 18 16 15 14 15 11 10 11 13 16 21 21 22 21 23
14 6 5 4 3 13 17 16 6 11 21 14 11 8 3 8 8 8 9 10 11 12 13 20 18 20 21 23 20 16 16 14 13 12 11 12 12 16 17 20 22 20 23 21
7 5 5 4 4 6 14 7 12 19 24 17 11 10 5 7 5 7 7 9 9 13 14 20 20 19 19 19 19 16 14 12 10 9 10 13 15 16 18 20 21 21 18 18
10 11 7 4 15 18 16 18 12 7 15 19 14 10 6 4 5 7 7 7 8 9 12 18 19 15 16 18 17 15 12 9 9 10 12 13 14 17 19 18 18 20 19 10
13 13 21 22 25 14 15 14 20 15 17 14 12 8 3 3 4 5 6 7 7 9 16 19 16 15 17 17 14 13 9 7 8 9 12 14 15 16 16 17 18 20 13 9
14 19 13 17 13 15 17 10 14 10 12 10 9 8 6 8 7 6 6 7 8 10 17 17 17 16 14 13 11 8 8 8 8 10 12 13 15 16 15 17 20 19 14 20
Wind_Direction
208 214 213 211 217 245 358 298 309 266 146 182 228 242 240 209 209 215 217 217 213 210 193 189 190 194 200 202 205 197 190 184 187 173 318 326 326 322 318 319 315 328 323 326
168 237 243 245 239 224 258 270 276 286 160 184 255 257 255 236 211 210 211 215 217 208 191 179 177 192 206 208 212 199 201 189 191 186 269 295 308 308 307 309 315 310 313 320
223 229 200 223 203 230 232 246 258 277 92 241 266 278 251 248 242 207 214 210 213 209 198 181 175 194 206 215 208 200 203 187 198 194 235 284 303 315 313 314 308 306 313 314
231 240 199 218 237 218 245 273 240 310 303 257 140 284 299 277 225 229 213 203 207 211 199 186 178 190 200 211 214 207 205 205 201 206 218 264 297 296 303 302 307 311 312 309
222 163 208 218 224 219 241 83 181 237 257 284 253 255 240 268 203 218 212 203 199 198 199 187 177 185 197 202 208 205 208 209 210 208 231 247 261 275 285 296 304 304 308 309
250 45 225 228 230 327 109 149 209 271 246 253 228 228 254 232 231 230 202 191 179 186 194 180 186 190 193 200 205 201 207 210 208 211 233 246 256 268 283 290 293 302 305 309
235 227 209 234 140 336 176 176 235 233 192 245 238 219 233 217 290 248 154 164 170 170 180 174 176 188 189 195 202 198 205 216 212 223 229 249 261 261 268 281 292 300 305 303
222 228 186 191 208 179 196 192 194 238 229 254 76 235 245 223 133 130 124 142 146 162 171 183 186 190 191 197 198 196 206 211 214 222 234 248 259 265 266 274 282 293 295 299
207 242 226 179 197 209 173 216 239 280 278 278 254 261 263 236 160 157 154 154 168 172 176 183 187 195 194 194 200 204 205 214 214 220 236 242 260 270 277 281 284 287 293 294
240 267 232 155 188 232 238 148 188 221 244 237 245 241 234 206 180 170 177 181 186 172 179 186 190 192 198 198 202 206 207 212 217 222 231 244 253 270 278 283 285 289 293 288
225 245 314 102 206 179 192 213 229 230 215 228 261 252 175 66 56 180 180 183 183 183 186 188 188 192 197 199 201 202 206 208 212 220 231 235 258 267 275 283 288 289 289 296
236 222 244 217 201 213 209 210 207 210 215 234 241 246 272 291 186 150 170 175 179 183 189 185 182 185 187 196 201 201 201 206 214 223 228 241 256 269 278 283 288 293 294 301
199 238 251 265 181 243 228 225 220 234 263 251 247 257 175 97 152 157 159 163 175 181 177 179 178 187 189 191 198 198 198 207 215 222 225 239 258 271 280 286 288 293 298 298
89 231 232 235 235 175 207 216 223 225 233 243 241 259 238 184 171 175 201 193 175 178 177 182 187 192 190 193 192 195 203 210 214 219 229 242 259 270 278 283 289 293 294 296
282 246 248 260 266 260 234 210 217 217 230 230 244 246 245 238 228 206 197 195 182 183 182 187 188 188 188 189 193 195 201 206 206 211 229 243 257 267 277 284 289 291 293 298
325 291 290 258 255 254 261 259 236 217 228 239 246 260 244 258 257 248 195 202 210 201 187 190 185 180 191 187 190 192 200 199 209 218 236 249 258 270 277 283 286 294 302 306
286 299 301 274 264 253 243 245 246 239 224 223 227 240 219 253 238 254 250 197 191 181 186 183 185 184 184 191 185 191 196 196 210 224 237 256 268 272 281 285 297 303 310 311
248 259 270 270 269 246 247 232 242 243 240 231 243 254 249 242 238 232 165 182 177 174 182 168 166 166 180 189 186 185 188 194 208 227 248 260 268 278 286 301 304 308 308 306
221 250 265 264 250 272 251 233 218 214 244 234 236 251 253 250 249 233 174 170 176 175 165 153 159 166 175 177 176 182 185 199 219 237 253 260 270 286 302 305 306 306 305 306
232 259 261 269 263 249 234 239 200 143 254 191 236 251 250 239 240 242 180 170 156 135 135 140 157 163 163 166 172 173 181 201 220 237 250 257 277 291 295 297 299 300 303 306
269 228 248 257 277 299 317 255 168 214 260 190 264 254 244 219 224 166 135 133 133 131 135 148 154 154 159 168 173 174 192 207 225 239 248 267 277 289 293 295 298 302 306 308
282 259 255 236 245 264 344 332 28 325 335 347 338 350 219 123 109 106 114 124 133 135 138 146 144 151 160 167 174 185 199 214 232 239 248 265 280 287 286 293 298 303 306 302
297 302 303 251 245 240 285 249 318 325 316 327 340 339 16 108 111 122 128 136 149 144 144 149 151 153 160 172 184 191 205 217 232 242 262 276 279 283 290 292 298 300 309 307
282 264 265 269 251 254 278 301 280 312 304 305 314 323 346 339 144 133 138 146 151 149 149 154 154 155 167 180 188 201 215 228 238 254 269 281 287 288 289 289 297 301 298 326
272 296 274 279 275 287 262 287 273 247 254 271 265 264 289 297 252 153 147 150 159 158 155 161 160 168 175 181 190 200 209 226 248 270 281 284 287 293 294 297 296 298 290 321
258 254 257 265 291 298 287 287 291 259 242 249 276 309 237 210 216 190 161 159 163 160 155 158 167 170 172 178 185 202 218 225 244 265 278 288 290 294 298 300 298 290 301 313